TimeEDT,TemperatureF,Dew PointF,Humidity,Sea Level PressureIn,VisibilityMPH,Wind Direction,Wind SpeedMPH,Gust SpeedMPH,PrecipitationIn,Events,Conditions,WindDirDegrees,DateUTC
12:02 AM,55.4,53.6,94,30.01,5.0,NNE,5.8,-,0.02,Rain,Rain,20,2013-10-11 04:02:00
12:53 AM,55.9,54.0,93,30.02,4.0,NNE,6.9,-,0.07,Rain,Rain,30,2013-10-11 04:53:00
1:04 AM,55.4,53.6,94,30.01,2.0,NNE,8.1,-,0.06,Rain,Heavy Rain,30,2013-10-11 05:04:00
1:26 AM,55.4,53.6,94,30.01,3.0,NNE,6.9,-,0.17,Rain-Thunderstorm,Heavy Rain,30,2013-10-11 05:26:00
1:36 AM,55.4,53.6,94,30.02,5.0,NNE,5.8,-,0.19,Rain-Thunderstorm,Light Rain,30,2013-10-11 05:36:00
1:44 AM,55.4,53.6,94,30.01,2.5,NNE,8.1,-,0.25,Rain,Heavy Rain,30,2013-10-11 05:44:00
1:53 AM,55.0,53.1,93,30.02,1.2,North,6.9,-,0.40,Rain,Heavy Rain,10,2013-10-11 05:53:00
2:10 AM,55.4,53.6,94,30.02,2.0,North,5.8,-,0.12,Rain-Thunderstorm,Rain,350,2013-10-11 06:10:00
2:16 AM,55.4,53.6,94,30.01,1.8,NNW,6.9,-,0.16,Rain-Thunderstorm,Heavy Rain,340,2013-10-11 06:16:00
2:23 AM,55.4,53.6,94,30.01,2.5,North,9.2,-,0.18,Rain-Thunderstorm,Heavy Rain,10,2013-10-11 06:23:00
2:31 AM,55.4,53.6,94,30.01,3.0,NNE,11.5,-,0.20,Rain,Rain,20,2013-10-11 06:31:00
2:53 AM,55.0,53.1,93,29.99,3.0,NNE,8.1,-,0.23,Rain,Light Rain,30,2013-10-11 06:53:00
3:17 AM,55.4,53.6,94,29.98,6.0,NNE,5.8,-,0.02,Rain,Light Rain,30,2013-10-11 07:17:00
3:34 AM,55.4,53.6,94,29.98,6.0,NNE,5.8,-,0.05,Rain,Light Rain,30,2013-10-11 07:34:00
3:53 AM,55.9,54.0,93,29.98,10.0,NE,8.1,-,0.05,,Overcast,40,2013-10-11 07:53:00
4:07 AM,55.4,53.6,94,29.99,2.5,ENE,6.9,-,0.08,Rain,Heavy Rain,60,2013-10-11 08:07:00
4:27 AM,55.4,53.6,94,29.97,1.5,NE,13.8,-,0.27,Rain,Heavy Rain,40,2013-10-11 08:27:00
4:33 AM,55.4,53.6,94,29.97,3.0,NNE,12.7,-,0.28,Rain,Light Rain,30,2013-10-11 08:33:00
4:53 AM,55.0,53.1,93,29.99,10.0,ENE,5.8,-,0.28,Rain,Light Rain,70,2013-10-11 08:53:00
5:53 AM,55.0,53.1,93,29.99,10.0,NNE,9.2,-,0.07,Rain,Light Rain,30,2013-10-11 09:53:00
6:53 AM,55.0,53.1,93,30.00,6.0,NE,8.1,-,0.12,Rain,Rain,50,2013-10-11 10:53:00
7:44 AM,55.4,53.6,94,30.00,10.0,NE,11.5,-,0.00,,Overcast,50,2013-10-11 11:44:00
7:53 AM,55.9,53.1,90,30.01,9.0,NE,12.7,19.6,0.01,Rain,Light Rain,40,2013-10-11 11:53:00
8:15 AM,55.4,53.6,94,30.02,4.0,NE,15.0,20.7,0.06,Rain,Heavy Rain,40,2013-10-11 12:15:00
8:53 AM,55.0,54.0,96,30.03,3.0,NE,6.9,-,0.20,Rain,Heavy Rain,50,2013-10-11 12:53:00
9:10 AM,55.4,53.6,94,30.02,2.5,NNE,10.4,-,0.12,Rain,Heavy Rain,30,2013-10-11 13:10:00
9:21 AM,55.4,53.6,94,30.02,1.2,NE,9.2,-,0.22,Rain,Heavy Rain,40,2013-10-11 13:21:00
9:46 AM,55.4,55.4,100,30.02,1.5,NE,10.4,-,0.38,Rain,Heavy Rain,50,2013-10-11 13:46:00
9:53 AM,55.9,55.0,97,30.02,2.0,NE,12.7,-,0.40,Rain,Rain,50,2013-10-11 13:53:00
10:05 AM,55.4,55.4,100,30.02,1.0,NE,10.4,18.4,0.12,Rain,Heavy Rain,50,2013-10-11 14:05:00
10:12 AM,55.4,55.4,100,30.02,0.8,ENE,11.5,18.4,0.23,Rain,Heavy Rain,60,2013-10-11 14:12:00
10:18 AM,55.4,55.4,100,30.01,1.0,NE,13.8,21.9,0.28,Rain,Heavy Rain,40,2013-10-11 14:18:00
10:25 AM,57.2,55.4,94,30.01,3.0,NE,16.1,21.9,0.29,Rain,Light Rain,40,2013-10-11 14:25:00
10:40 AM,57.2,55.4,94,30.02,10.0,NE,11.5,-,0.29,Rain,Light Rain,50,2013-10-11 14:40:00
10:53 AM,57.9,55.0,90,30.02,10.0,NE,11.5,-,0.29,Rain,Light Rain,50,2013-10-11 14:53:00
11:01 AM,57.2,55.4,94,30.02,10.0,NE,13.8,19.6,0.00,,Overcast,50,2013-10-11 15:01:00
11:28 AM,57.2,55.4,94,30.02,10.0,ENE,9.2,-,0.00,,Overcast,60,2013-10-11 15:28:00
11:53 AM,59.0,55.9,90,30.01,10.0,NE,10.4,-,0.00,,Overcast,50,2013-10-11 15:53:00
12:53 PM,61.0,57.9,90,30.00,10.0,NE,9.2,-,N/A,,Overcast,50,2013-10-11 16:53:00
1:36 PM,60.8,59.0,94,29.99,1.8,NE,10.4,-,0.00,Rain,Light Rain,40,2013-10-11 17:36:00
1:49 PM,60.8,59.0,94,29.99,2.0,NE,12.7,17.3,0.04,Rain,Light Rain,40,2013-10-11 17:49:00
1:53 PM,61.0,59.0,93,29.99,6.0,NE,10.4,-,0.04,Rain,Light Rain,40,2013-10-11 17:53:00
2:25 PM,60.8,59.0,94,29.99,10.0,NE,11.5,-,0.00,Rain,Light Rain,50,2013-10-11 18:25:00
2:53 PM,61.0,59.0,93,29.99,6.0,NE,10.4,-,0.01,Rain,Light Rain,50,2013-10-11 18:53:00
3:33 PM,60.8,59.0,94,29.99,1.8,ENE,6.9,-,0.05,Rain,Light Rain,60,2013-10-11 19:33:00
3:53 PM,61.0,59.0,93,29.99,1.2,ENE,10.4,-,0.27,Rain,Heavy Rain,60,2013-10-11 19:53:00
4:01 PM,60.8,59.0,94,29.99,2.0,ENE,8.1,-,0.01,Rain,Light Rain,70,2013-10-11 20:01:00
4:27 PM,60.8,60.8,100,30.00,2.0,ENE,8.1,-,0.10,Rain,Heavy Rain,60,2013-10-11 20:27:00
4:53 PM,61.0,59.0,93,30.00,2.0,NE,9.2,-,0.31,Rain,Heavy Rain,50,2013-10-11 20:53:00
4:58 PM,60.8,59.0,94,30.00,0.8,NE,10.4,-,0.11,Rain,Heavy Rain,40,2013-10-11 20:58:00
5:05 PM,60.8,59.0,94,30.00,0.8,NE,10.4,-,0.18,Rain,Heavy Rain,40,2013-10-11 21:05:00
5:10 PM,60.8,59.0,94,30.01,2.0,NE,11.5,-,0.18,Rain,Light Rain,50,2013-10-11 21:10:00
5:15 PM,60.8,59.0,94,30.01,0.8,NE,12.7,-,0.29,Rain,Heavy Rain,50,2013-10-11 21:15:00
5:30 PM,60.8,59.0,94,30.01,2.0,NE,11.5,-,0.46,Rain,Light Rain,40,2013-10-11 21:30:00
5:48 PM,60.8,59.0,94,30.01,5.0,NNE,11.5,-,0.47,Rain,Light Rain,30,2013-10-11 21:48:00
5:53 PM,61.0,59.0,93,30.01,3.0,NE,10.4,-,0.47,Rain,Light Rain,40,2013-10-11 21:53:00
6:00 PM,60.8,59.0,94,30.01,1.8,NE,9.2,-,0.03,Rain,Light Rain,50,2013-10-11 22:00:00
6:09 PM,60.8,59.0,94,30.02,1.2,NE,9.2,-,0.06,Rain,Heavy Rain,40,2013-10-11 22:09:00
6:14 PM,60.8,59.0,94,30.02,3.0,NE,8.1,-,0.06,Rain,Light Rain,50,2013-10-11 22:14:00
6:53 PM,61.0,59.0,93,30.03,6.0,NE,9.2,-,0.10,Rain,Rain,40,2013-10-11 22:53:00
7:53 PM,61.0,59.0,93,30.03,10.0,NE,10.4,-,0.02,Rain,Light Rain,40,2013-10-11 23:53:00
8:07 PM,60.8,59.0,94,30.03,10.0,NE,9.2,-,0.00,,Overcast,40,2013-10-12 00:07:00
8:24 PM,60.8,59.0,94,30.03,9.0,NE,10.4,-,0.00,Rain,Light Rain,40,2013-10-12 00:24:00
8:53 PM,61.0,57.9,90,30.04,10.0,NE,11.5,-,0.01,,Overcast,50,2013-10-12 00:53:00
9:17 PM,60.8,57.2,88,30.04,10.0,NE,13.8,-,N/A,,Overcast,40,2013-10-12 01:17:00
9:53 PM,61.0,57.9,90,30.06,10.0,ENE,6.9,-,N/A,,Overcast,70,2013-10-12 01:53:00
10:53 PM,62.1,57.9,86,30.06,10.0,ENE,8.1,-,N/A,,Overcast,70,2013-10-12 02:53:00
11:45 PM,60.8,57.2,88,30.05,10.0,NE,5.8,-,N/A,,Overcast,50,2013-10-12 03:45:00
11:53 PM,61.0,57.0,87,30.04,10.0,NE,6.9,-,N/A,,Mostly Cloudy,50,2013-10-12 03:53:00